Championnat Languedoc - Roussillon > Results

25 October 2015 @ la viére Saint-Thibéry (34)
Motocross • Moto Club de Saint Thibery • LIGUE OCCITANIE

138 participants

 

Results

  1. MX1 1ère MANCHE
  2. MX1 2ème MANCHE
  3. MX1 Clt Jour
  4. 125cc 1ère Manche
  5. 125cc 2ème MANCHE
  6. 125cc Clt Jour
  7. Vétéran 1ère MANCHE
  8. Vétéran 2ème MANCHE
  9. Vétéran Clt Jour
  10. MX2 1ère MANCHE
  11. MX2 2ème MANCHE
  12. MX2 Clt Jour

MX2 2ème MANCHE

Place Number Participant Rg/cat Team Tr Temps Moy/Ec Meill. Tour Pts
1 618 PEYRAS Jimmy MX2 1 Moto sport Nimois 11 22:46.259 11 Trs @02:00.871 50.0
2 218 BREBAN Luc MX2 2 MOTO CLUB WELCOME TT 11 23:24.691 00:38.432 02:05.788 48.0
3 990 RIBO Yohan MX2 3 Moto club Sommierois 11 24:05.520 01:19.261 02:04.971 46.0
4 20 CAVAILHES Vincent MX2 4 Moto Club Aspiranais 11 24:13.050 01:26.791 02:05.392 44.0
5 99 PERRIER Alexandre MX2 5 MC Pertuis Durance Luberon 11 24:14.391 01:28.132 02:09.639 42.0
6 131 ROUSSEL Lauric MX2 6 Moto club Sommierois 11 24:35.058 01:48.799 02:10.822 40.0
7 299 BUISSON Sonny MX2 7 Moto Club les Gaulois 11 24:36.499 01:50.240 02:12.640 39.0
8 421 GUILLON Tom MX2 8 Moto Club de Saint Thibery 11 24:43.390 01:57.131 02:11.500 38.0
9 668 GEBHARD Christophe MX2 9 Frontignan La Cible 11 24:55.514 02:09.255 02:13.596 37.0
10 23 CHRISTOL Yannick MX2 10 Moto Club Aspiranais 10 22:53.516 10 Trs 02:14.660 36.0
11 117 LAIGLE Mickael MX2 11 Moto sport Nimois 10 23:05.806 00:12.290 02:12.295 35.0
12 422 RIQUELME Allan Christopher MX2 12 MC Chateauneuf les Martigues 10 23:12.913 00:19.397 02:16.176 34.0
13 36 SANCHEZ Mathieu MX2 13 MC'Alairac en Malepere 10 23:14.782 00:21.266 02:16.829 33.0
14 63 JIMENEZ Geoffrey MX2 14 MC Salindres-Rousson 10 23:28.562 00:35.046 02:17.208 32.0
15 114 LACOMBE Elie MX2 15 Moto Club Bellegardais 10 23:30.732 00:37.216 02:18.653 31.0
16 17 CAZALET Kevin MX2 16 Moto club Sommierois 10 23:32.756 00:39.240 02:17.951 30.0
17 11 JOUANEN Vincent MX2 17 Moto Club de Saint Thibery 10 23:57.977 01:04.461 02:18.443 29.0
18 911 NACER Malcolm MX2 18 Moto Club de Saint Thibery 10 24:33.103 01:39.587 02:22.662 28.0
19 38 VICO Alexandre MX2 19 MC Alairac en Malepere 10 24:38.216 01:44.700 02:22.584 27.0
20 499 ETIENNE Lucas MX2 20 Moto Club de Saint Thibery 10 24:42.411 01:48.895 02:25.370 26.0
21 320 REY Robin MX2 21 MC Chateauneuf les Martigues 10 24:50.183 01:56.667 02:24.279 25.0
22 164 MONCOUQUT Mickael MX2 22 MC Chateauneuf les Martigues 10 25:05.928 02:12.412 02:26.798 24.0
23 556 LARGILLIERE Alexandre MX2 23 MC Chateauneuf les Martigues 10 25:10.019 02:16.503 02:26.091 23.0
24 14 VALLA Loic MX2 24 Moto Club des Costieres 9 22:53.325 9 Trs 02:23.521 22.0
25 28 ESCUDER Loic MX2 25 Moto Club de Saint Thibery 9 22:54.984 00:01.659 02:26.014 21.0
26 269 GYS Francois MX2 26 Moto Club Aspiranais 9 23:17.620 00:24.295 02:31.020 20.0
27 145 COULET Renaud MX2 27 Moto club Sommierois 9 23:45.136 00:51.811 02:31.893 19.0
28 285 MARTIN Thomas MX2 28 Moto Club de Saint Thibery 9 23:48.278 00:54.953 02:28.782 18.0
29 165 ROBILLARD Miguel MX2 29 MC Chateauneuf les Martigues 9 25:08.671 02:15.346 02:42.133 17.0
30 158 RODRIGUEZ Sebastien MX2 30 CM'X Racer 7 23:05.369 7 Trs 03:00.897 16.0
31 289 POUGET Thomas MX2 31 MC Salindres-Rousson 6 13:52.380 6 Trs 02:16.070 15.0
32 142 PINTO FONSECA Renato Miguel MX2 32 MC Alairac en Malepere 3 8:06.503 3 Trs 02:36.951 14.0

- DNF : Do Not Finish (non arrivé)
- DNS : Do Not Start (non parti)